Weather History for Windsor, ON

Change the Weather History Date:

Monday, October 1, 2012

  Actual Average Record
Temperature  
Mean Temperature 55 °F -  
Max Temperature 64 °F 60 °F 84 °F (2002)
Min Temperature 46 °F 43 °F 39 °F (2003)
Degree Days  
Heating Degree Days 10    
Growing Degree Days 5 (Base 50)    
Moisture  
Dew Point 46 °F    
Average Humidity 73    
Maximum Humidity 100    
Minimum Humidity 38    
Precipitation  
Precipitation 0.01 in 0.08 in - ()
Sea Level Pressure  
Sea Level Pressure 29.92 in    
Wind  
Wind Speed 3 mph ()    
Max Wind Speed 8 mph    
Max Gust Speed -    
Visibility 14.6 miles    
Events      
Averages and records for this station are not official NWS values.
T = Trace of Precipitation, MM = Missing Value Source: Averaged Metar Reports

Daily Weather History Graph

Daily Weather History Graph

Search for Another Location

Airport:

Trip Planner

Search our weather history database for the weather conditions in past years. The results will help you decide how hot, cold, wet, or windy it might be!

Date:

Astronomy

Oct. 01, 2012 Rise Set
Actual Time 7:29 AM EDT 7:12 PM EDT
Civil Twilight 7:01 AM EDT 7:40 PM EDT
Nautical Twilight 6:28 AM EDT 8:12 PM EDT
Astronomical Twilight 5:56 AM EDT 8:45 PM EDT
Moon 7:45 PM EDT (10/1) 9:00 AM EDT (10/1)
Length of Visible Light 12h 38m
Length of Day
11h 43m
Full, 98% of the Moon is Illuminated
Oct 1
Full
Oct 8
Last Quarter
Oct 15
New
Oct 21
First Quarter
Oct 29
Full

Hourly Weather History & Observations

Time (EDT) Temp. Windchill Dew Point Humidity Pressure Visibility Wind Dir Wind Speed Gust Speed Precip Events Conditions
12:00 AM 50.0 °F - 48.2 °F 94% 29.96 in 15.0 mi North 2.3 mph - N/A   Clear
2:00 AM 47 °F - 46 °F 95% 29.94 in 15 mi Calm Calm - -  
2:00 AM 46.4 °F - 46.4 °F 100% 29.94 in 15.0 mi Calm Calm - N/A   Clear
3:00 AM 46.4 °F 44.3 °F 46.4 °F 100% 29.94 in 15.0 mi West 4.6 mph - N/A   Clear
4:00 AM 46.4 °F - 46.4 °F 100% 29.94 in 15.0 mi WSW 2.3 mph - N/A   Partly Cloudy
5:00 AM 48.2 °F - 46.4 °F 93% 29.94 in 15.0 mi West 3.5 mph - N/A   Partly Cloudy
6:00 AM 48.2 °F - 44.6 °F 87% 29.95 in 15.0 mi West 3.5 mph - N/A   Scattered Clouds
7:00 AM 46.4 °F - 44.6 °F 93% 29.95 in 10.0 mi NNE 2.3 mph - N/A   Scattered Clouds
8:00 AM 47 °F - 46 °F 94% 29.96 in 12 mi Calm Calm - -   Clear
8:00 AM 46.4 °F - 46.4 °F 100% 29.96 in 12.0 mi Calm Calm - N/A   Mostly Cloudy
9:00 AM 50.0 °F - 48.2 °F 94% 29.98 in 15.0 mi Calm Calm - N/A   Mostly Cloudy
10:00 AM 57.2 °F - 51.8 °F 82% 29.96 in 15.0 mi NE 5.8 mph - N/A   Mostly Cloudy
11:00 AM 59.0 °F - 46.4 °F 63% 29.97 in 15.0 mi ENE 4.6 mph - N/A   Mostly Cloudy
12:00 PM 60.8 °F - 44.6 °F 55% 29.95 in 15.0 mi NE 8.1 mph - N/A   Mostly Cloudy
1:00 PM 62.6 °F - 42.8 °F 48% 29.94 in 15.0 mi East 8.1 mph - N/A   Mostly Cloudy
2:00 PM 63 °F - 44 °F 38% 29.92 in 15 mi NE 6.9 mph - -   Clear
2:00 PM 62.6 °F - 44.6 °F 52% 29.92 in 15.0 mi NE 4.6 mph - N/A   Mostly Cloudy
3:00 PM 62.6 °F - 42.8 °F 48% 29.91 in 15.0 mi NE 6.9 mph - N/A   Overcast
4:00 PM 62.6 °F - 42.8 °F 48% 29.89 in 15.0 mi NNE 2.3 mph - N/A   Mostly Cloudy
5:00 PM 64.4 °F - 41.0 °F 42% 29.88 in 15.0 mi Calm Calm - N/A   Mostly Cloudy
6:00 PM 64.4 °F - 41.0 °F 42% 29.88 in 15.0 mi West 2.3 mph - N/A   Scattered Clouds
7:00 PM 60.8 °F - 46.4 °F 59% 29.88 in 15.0 mi South 4.6 mph - N/A   Mostly Cloudy
8:00 PM 58 °F - 47 °F 57% 29.88 in 15 mi SE 2.3 mph - -   Mostly Cloudy
8:00 PM 57.2 °F - 46.4 °F 67% 29.88 in 15.0 mi ESE 2.3 mph - N/A   Mostly Cloudy
9:00 PM 57.2 °F - 46.4 °F 67% 29.88 in 15.0 mi ENE 3.5 mph - N/A   Mostly Cloudy
10:00 PM 57.2 °F - 48.2 °F 72% 29.88 in 15.0 mi NE 2.3 mph - N/A   Overcast
11:00 PM 57.2 °F - 48.2 °F 72% 29.86 in 15.0 mi ENE 4.6 mph - N/A   Overcast